Frankford, WV

11:24 AM EST on February 27, 2017 (GMT -0500)
Greenbrier Valley

Weather History for KLWB - January, 2010

Change the Weather History Date:

Friday, January 1, 2010

  Actual Average Record
Temperature  
Mean Temperature 28 °F 29 °F  
Max Temperature 37 °F 38 °F 63 °F (1985)
Min Temperature 19 °F 19 °F 4 °F (1977)
Degree Days  
Heating Degree Days 37    
Month to date heating degree days  
Since 1 July heating degree days  
Cooling Degree Days 0    
Month to date cooling degree days  
Year to date cooling degree days  
Moisture  
Dew Point 26 °F    
Average Humidity 81    
Maximum Humidity 100    
Minimum Humidity 64    
Precipitation  
Precipitation 0.00 in - 0.07 in (2012)
Snow  
Snow 0.00 in - - ()
Month to date snowfall  
Since 1 July snowfall  
Snow Depth -    
Sea Level Pressure  
Sea Level Pressure 29.98 in    
Wind  
Wind Speed 6 mph (WNW)    
Max Wind Speed 15 mph    
Max Gust Speed 22 mph    
Visibility 9 miles    
Events Snow    
T = Trace of Precipitation, MM = Missing Value Source: NWS Daily Summary

Daily Weather History Graph

Daily Weather History Graph

Search for Another Location

Airport or City:

Trip Planner

Search our weather history database for the weather conditions in past years. The results will help you decide how hot, cold, wet, or windy it might be!

Date:

Astronomy

Jan. 01, 2010 Rise Set
Actual Time 7:37 AM EST 5:13 PM EST
Civil Twilight 7:08 AM EST 5:42 PM EST
Nautical Twilight 6:35 AM EST 6:15 PM EST
Astronomical Twilight 6:03 AM EST 6:47 PM EST
Moon 6:30 PM EST (1/1) 8:21 AM EST (1/1)
Length of Visible Light 10h 34m
Length of Day
9h 35m
Full, 99% of the Moon is Illuminated
Jan 1
Full
Jan 7
Last Quarter
Jan 15
New
Jan 23
First Quarter
Jan 30
Full

Hourly Weather History & Observations

Time (EST) Temp. Windchill Dew Point Humidity Pressure Visibility Wind Dir Wind Speed Gust Speed Precip Events Conditions
12:00 AM 35.6 °F - 35.6 °F 100% 29.98 in 1.2 mi Calm Calm - N/A   Overcast
12:20 AM 37.4 °F 34.9 °F 37.4 °F 100% 29.98 in 10.0 mi West 3.5 mph - N/A   Overcast
12:40 AM 35.6 °F - 35.6 °F 100% 29.98 in 10.0 mi Calm Calm - N/A   Overcast
1:02 AM 35.6 °F - 35.6 °F 100% 29.98 in 10.0 mi Calm Calm - N/A   Overcast
1:20 AM 37.4 °F 34.9 °F 35.6 °F 93% 29.98 in 10.0 mi NW 3.5 mph - N/A   Overcast
1:40 AM 37.4 °F 33.8 °F 35.6 °F 93% 29.97 in 10.0 mi WNW 4.6 mph - N/A   Overcast
1:59 AM 35.6 °F 29.9 °F 35.6 °F 100% 29.97 in 10.0 mi West 6.9 mph - N/A   Overcast
2:19 AM 35.6 °F 30.7 °F 33.8 °F 93% 29.98 in 10.0 mi WNW 5.8 mph - N/A   Overcast
2:40 AM 35.6 °F 30.7 °F 33.8 °F 93% 29.98 in 10.0 mi West 5.8 mph - N/A   Overcast
3:00 AM 35.6 °F 29.9 °F 33.8 °F 93% 29.98 in 10.0 mi West 6.9 mph - N/A   Overcast
3:19 AM 35.6 °F 28.6 °F 33.8 °F 93% 29.98 in 10.0 mi West 9.2 mph - N/A   Overcast
3:40 AM 35.6 °F 29.9 °F 33.8 °F 93% 29.98 in 10.0 mi West 6.9 mph - N/A   Overcast
4:00 AM 35.6 °F 29.9 °F 33.8 °F 93% 29.98 in 10.0 mi West 6.9 mph - N/A   Overcast
4:19 AM 35.6 °F 30.7 °F 32.0 °F 87% 29.97 in 10.0 mi West 5.8 mph - N/A   Overcast
4:39 AM 35.6 °F 29.9 °F 32.0 °F 87% 29.97 in 10.0 mi West 6.9 mph - N/A   Overcast
5:01 AM 35.6 °F 30.7 °F 32.0 °F 87% 29.96 in 10.0 mi WNW 5.8 mph - N/A   Overcast
5:20 AM 35.6 °F 31.7 °F 32.0 °F 87% 29.96 in 10.0 mi WNW 4.6 mph - N/A   Overcast
5:39 AM 35.6 °F 29.9 °F 32.0 °F 87% 29.97 in 10.0 mi WNW 6.9 mph - N/A   Overcast
6:00 AM 35.6 °F 29.9 °F 30.2 °F 81% 29.97 in 10.0 mi WNW 6.9 mph - N/A   Overcast
6:22 AM 35.6 °F 30.7 °F 30.2 °F 81% 29.98 in 10.0 mi WNW 5.8 mph - N/A   Overcast
6:40 AM 35.6 °F 30.7 °F 30.2 °F 81% 29.98 in 7.0 mi NW 5.8 mph - N/A   Overcast
7:00 AM 35.6 °F 29.2 °F 30.2 °F 81% 29.98 in 10.0 mi West 8.1 mph - N/A   Overcast
7:20 AM 35.6 °F 27.5 °F 28.4 °F 75% 29.98 in 10.0 mi NW 11.5 mph 17.3 mph N/A   Overcast
7:40 AM 35.6 °F 30.7 °F 28.4 °F 75% 29.98 in 10.0 mi WNW 5.8 mph - N/A   Overcast
8:00 AM 35.6 °F 29.9 °F 30.2 °F 81% 29.98 in 10.0 mi WNW 6.9 mph - N/A   Overcast
8:20 AM 35.6 °F 28.0 °F 28.4 °F 75% 29.98 in 10.0 mi WNW 10.4 mph - N/A   Overcast
8:39 AM 35.6 °F 29.9 °F 28.4 °F 75% 29.98 in 10.0 mi WNW 6.9 mph - N/A   Overcast
9:00 AM 33.8 °F 27.7 °F 28.4 °F 81% 29.98 in 10.0 mi West 6.9 mph - N/A   Overcast
9:20 AM 33.8 °F 29.6 °F 28.4 °F 81% 29.98 in 10.0 mi West 4.6 mph - N/A   Overcast
9:40 AM 33.8 °F 26.4 °F 28.4 °F 81% 29.99 in 10.0 mi West 9.2 mph - N/A   Overcast
10:00 AM 33.8 °F 28.6 °F 28.4 °F 81% 29.98 in 10.0 mi West 5.8 mph - N/A   Overcast
10:20 AM 35.6 °F 29.2 °F 28.4 °F 75% 29.99 in 10.0 mi WNW 8.1 mph - N/A   Overcast
10:39 AM 35.6 °F 29.9 °F 26.6 °F 70% 29.99 in 10.0 mi NW 6.9 mph 17.3 mph N/A   Overcast
11:00 AM 33.8 °F 28.6 °F 26.6 °F 75% 29.98 in 10.0 mi WNW 5.8 mph - N/A   Overcast
11:20 AM 33.8 °F 26.4 °F 26.6 °F 75% 29.98 in 10.0 mi West 9.2 mph - N/A   Overcast
11:39 AM 33.8 °F 26.4 °F 28.4 °F 81% 29.97 in 7.0 mi West 9.2 mph 16.1 mph N/A   Overcast
12:00 PM 33.8 °F 27.0 °F 26.6 °F 75% 29.97 in 10.0 mi WNW 8.1 mph 17.3 mph N/A   Overcast
12:19 PM 33.8 °F 25.3 °F 24.8 °F 70% 29.96 in 10.0 mi NW 11.5 mph - N/A   Overcast
12:40 PM 32.0 °F 26.4 °F 26.6 °F 80% 29.96 in 7.0 mi WNW 5.8 mph - N/A   Overcast
1:00 PM 32.0 °F 24.2 °F 26.6 °F 80% 29.95 in 5.0 mi WNW 9.2 mph - N/A   Haze
1:20 PM 32.0 °F 23.0 °F 24.8 °F 75% 29.96 in 10.0 mi West 11.5 mph 19.6 mph N/A   Overcast
1:39 PM 32.0 °F 23.0 °F 24.8 °F 75% 29.95 in 10.0 mi West 11.5 mph 16.1 mph N/A   Overcast
2:00 PM 32.0 °F 25.6 °F 24.8 °F 75% 29.95 in 10.0 mi WNW 6.9 mph - N/A   Overcast
2:20 PM 30.2 °F 21.3 °F 21.2 °F 69% 29.96 in 10.0 mi WNW 10.4 mph 16.1 mph N/A   Overcast
3:00 PM 28.4 °F 19.1 °F 19.4 °F 69% 29.98 in 10.0 mi WNW 10.4 mph - N/A   Mostly Cloudy
3:20 PM 28.4 °F 17.0 °F 17.6 °F 64% 29.98 in 10.0 mi West 15.0 mph 20.7 mph N/A   Mostly Cloudy
3:40 PM 26.6 °F 16.8 °F 19.4 °F 74% 29.98 in 7.0 mi West 10.4 mph 19.6 mph N/A Snow Light Snow
4:00 PM 24.8 °F 14.0 °F 15.8 °F 69% 29.99 in 10.0 mi West 11.5 mph 21.9 mph N/A   Overcast
4:20 PM 24.8 °F 14.6 °F 17.6 °F 74% 30.00 in 5.0 mi WNW 10.4 mph 19.6 mph N/A Snow Light Snow
4:40 PM 23.0 °F 11.1 °F 14.0 °F 68% 30.01 in 10.0 mi NW 12.7 mph 19.6 mph N/A   Overcast
5:00 PM 21.2 °F 12.6 °F 12.2 °F 68% 30.01 in 10.0 mi WNW 6.9 mph 21.9 mph N/A Snow Light Snow
5:19 PM 21.2 °F 13.6 °F 12.2 °F 68% 30.02 in 7.0 mi West 5.8 mph 17.3 mph N/A Snow Light Snow
5:40 PM 21.2 °F 11.7 °F 12.2 °F 68% 30.02 in 10.0 mi North 8.1 mph - N/A Snow Light Snow
6:02 PM 19.4 °F 10.4 °F 12.2 °F 74% 30.02 in 5.0 mi NW 6.9 mph 16.1 mph N/A Snow Light Snow
6:23 PM 19.4 °F 12.8 °F 12.2 °F 74% 30.03 in 7.0 mi WNW 4.6 mph - N/A Snow Light Snow
6:40 PM 19.4 °F 12.8 °F 12.2 °F 74% 30.03 in 7.0 mi WNW 4.6 mph - N/A Snow Light Snow
7:00 PM 19.4 °F 12.8 °F 12.2 °F 74% 30.02 in 7.0 mi NNW 4.6 mph - N/A Snow Light Snow
7:21 PM 19.4 °F 11.5 °F 12.2 °F 74% 30.03 in 7.0 mi West 5.8 mph - N/A Snow Light Snow
7:40 PM 19.4 °F 11.5 °F 14.0 °F 80% 30.02 in 5.0 mi West 5.8 mph - N/A Snow Light Snow
8:00 PM 19.4 °F 11.5 °F 14.0 °F 80% 30.02 in 4.0 mi West 5.8 mph - N/A Snow Light Snow
8:20 PM 19.4 °F 10.4 °F 14.0 °F 80% 30.02 in 4.0 mi NW 6.9 mph - N/A Snow Light Snow
8:40 PM 19.4 °F 11.5 °F 15.8 °F 86% 30.01 in 2.5 mi NW 5.8 mph - N/A Snow Light Snow
9:00 PM 19.4 °F - 14.0 °F 80% 30.01 in 3.0 mi Calm Calm - N/A Snow Light Snow
9:19 PM 19.4 °F 11.5 °F 14.0 °F 80% 30.01 in 2.0 mi WNW 5.8 mph - N/A Snow Light Snow
9:40 PM 19.4 °F 10.4 °F 12.2 °F 74% 30.01 in 4.0 mi West 6.9 mph - N/A Snow Light Snow
10:01 PM 19.4 °F 11.5 °F 12.2 °F 74% 30.01 in 5.0 mi WNW 5.8 mph - N/A Snow Light Snow
10:20 PM 19.4 °F 11.5 °F 12.2 °F 74% 30.00 in 5.0 mi West 5.8 mph - N/A Snow Light Snow
10:40 PM 19.4 °F 12.8 °F 12.2 °F 74% 30.00 in 7.0 mi West 4.6 mph - N/A Snow Light Snow
11:01 PM 19.4 °F 10.4 °F 12.2 °F 74% 30.00 in 4.0 mi West 6.9 mph - N/A Snow Light Snow
11:19 PM 19.4 °F 7.9 °F 12.2 °F 74% 29.99 in 5.0 mi WNW 10.4 mph - N/A Snow Light Snow
11:40 PM 19.4 °F 8.6 °F 12.2 °F 74% 29.99 in 5.0 mi NW 9.2 mph 18.4 mph N/A Snow Light Snow
11:59 PM 17.6 °F 10.7 °F 14.0 °F 86% 29.98 in 1.8 mi WNW 4.6 mph - N/A Snow Light Snow